Regional Weather Roundup
Issued by NWS

Home | Current Version | Previous Version | Text Only | Print | Product List | Glossary Off
Versions: 1 2 3 4 5 6 7 8 9 10 11 12 13 14 15 16 17 18 19 20 21 22 23 24 25 26 27

000
ASUS45 KCYS 170710
RWRWY

WYOMING REGIONAL WEATHER ROUNDUP
NATIONAL WEATHER SERVICE CHEYENNE WY
100 AM MDT THU AUG 17 2017

NOTE:  "FAIR" INDICATES FEW OR NO CLOUDS BELOW 12,000 FEET
WITH NO SIGNIFICANT WEATHER AND/OR OBSTRUCTIONS TO VISIBILITY.

WYZ001-170800-
YELLOWSTONE NATIONAL PARK

CITY           SKY/WX    TMP DP  RH WIND       PRES   REMARKS
LK YELLOWSTONE   N/A     43  40  89 CALM      30.27F
W YELLOWSTONE  NOT AVBL

$$
WYZ002>013-054>058-071-098>099-170800-
NORTHERN WYOMING

CITY           SKY/WX    TMP DP  RH WIND       PRES   REMARKS
JACKSON        FAIR      45  35  68 N5        30.20R
CODY           FAIR      64  43  46 S7        30.06S
GREYBULL       FAIR      67  42  40 E6        29.97S
WORLAND        FAIR      64  45  49 S7        30.00R
SHERIDAN       FAIR      64  45  49 S3        29.95F
BUFFALO        MOCLDY    65  34  31 SW5       30.03F
GILLETTE       FAIR      66  37  34 S14       29.99F
HULETT         FAIR      68  43  40 S12       30.02S
NEWCASTLE      FAIR      63  43  48 E15G22    30.06S

$$
WYZ014>020-022>026-101>103-170800-
CENTRAL WYOMING

CITY           SKY/WX    TMP DP  RH WIND       PRES   REMARKS
BIG PINEY      FAIR      45  38  76 N8        30.25R
PINEDALE       FAIR      43  37  81 NW7       30.26S
DUBOIS         FAIR      48  34  57 NW9       30.22S
LANDER           N/A    N/A N/A N/A MISG      30.09R
RIVERTON       CLOUDY    67  42  40 SW10      30.10R
CASPER         FAIR      57  43  59 W7        30.08F
DOUGLAS        FAIR      54  44  69 E8        30.08F

$$
WYZ021-027>030-104>119-170800-
SOUTHERN WYOMING

CITY           SKY/WX    TMP DP  RH WIND       PRES   REMARKS
EVANSTON       FAIR      57  39  51 S6        30.26S
KEMMERER         N/A     54  37  54 NW5       30.27R
FORT BRIDGER   FAIR      63  34  34 SW9       30.28S
ROCK SPRINGS   FAIR      60  37  42 SW10      30.22R
RAWLINS        FAIR      52  43  71 CALM      30.21S
SARATOGA       FAIR      50  43  76 S13       30.25S
LARAMIE        FAIR      47  40  76 S8        30.25S
CHEYENNE       FAIR      55  44  66 SW7       30.19S
TORRINGTON     FAIR      53  50  89 E5        30.07S
PINE BLUFFS    FAIR      50  46  87 S5        30.15F

$$




USA.gov is the U.S. government's official web portal to all federal, state and local government web resources and services.